When you browse on this site, cookies collect data to enhance your experience and personalize the content and advertising you see.
Visit our Privacy Policy to learn more. By continuing to use the site, you agree to this use of cookies and data.
  • In Lithuania
  • List of Countries
  • For 7 days
  • Water Temperature
  • Weather Map
  • Weather Widgets
  • user-avatar
    Login

    Hourly Weather Adelaide

    Today, 30 May, Saturday

    Time Temperature Precipitation Wind Pressure Humidity
    00:00 +13°C° 0 mm 5 mps 760 mmHg 48%
    01:00 +13°C° 0 mm 5 mps 760 mmHg 50%
    02:00 +13°C° 0 mm 5 mps 760 mmHg 51%
    03:00 +13°C° 0 mm 5 mps 759 mmHg 53%
    04:00 +13°C° 0 mm 6 mps 759 mmHg 53%
    05:00 +13°C° 0 mm 6 mps 759 mmHg 53%
    06:00 +12°C° 0 mm 7 mps 758 mmHg 52%
    07:00 +14°C° 0 mm 7 mps 758 mmHg 51%
    08:00 +15°C° 0 mm 8 mps 757 mmHg 49%
    09:00 +16°C° 0 mm 9 mps 757 mmHg 44%
    10:00 +17°C° 0 mm 9 mps 756 mmHg 43%
    11:00 +18°C° 0 mm 9 mps 755 mmHg 42%
    12:00 +18°C° 0 mm 9 mps 755 mmHg 41%
    13:00 +17°C° 0.3 mm 9 mps 754 mmHg 50%
    14:00 +14°C° 0.3 mm 10 mps 754 mmHg 60%
    15:00 +13°C° 0.3 mm 10 mps 754 mmHg 69%
    16:00 +13°C° 0.1 mm 10 mps 754 mmHg 68%
    17:00 +13°C° 0.1 mm 9 mps 754 mmHg 66%
    18:00 +13°C° 0.1 mm 9 mps 754 mmHg 65%
    19:00 +13°C° 0.3 mm 8 mps 754 mmHg 71%
    20:00 +14°C° 0.3 mm 7 mps 755 mmHg 77%
    21:00 +13°C° 0.3 mm 6 mps 755 mmHg 83%
    22:00 +13°C° 0.1 mm 6 mps 755 mmHg 83%
    23:00 +13°C° 0.1 mm 5 mps 756 mmHg 83%

    Tomorrow, 31 May, Sunday

    Time Temperature Precipitation Wind Pressure Humidity
    00:00 +13°C° 0.1 mm 5 mps 756 mmHg 84%
    01:00 +12°C° 0 mm 5 mps 756 mmHg 83%
    02:00 +12°C° 0 mm 5 mps 756 mmHg 83%
    03:00 +12°C° 0 mm 5 mps 756 mmHg 82%
    04:00 +12°C° 0.1 mm 4 mps 756 mmHg 82%
    05:00 +11°C° 0.1 mm 4 mps 756 mmHg 83%
    06:00 +11°C° 0.1 mm 4 mps 756 mmHg 83%
    07:00 +12°C° 0.1 mm 4 mps 756 mmHg 81%
    08:00 +12°C° 0.1 mm 4 mps 756 mmHg 79%
    09:00 +13°C° 0.1 mm 5 mps 757 mmHg 77%
    10:00 +13°C° 0.2 mm 5 mps 756 mmHg 74%
    11:00 +13°C° 0.2 mm 6 mps 756 mmHg 71%
    12:00 +14°C° 0.2 mm 6 mps 755 mmHg 68%
    13:00 +14°C° 0 mm 6 mps 755 mmHg 67%
    14:00 +14°C° 0 mm 7 mps 754 mmHg 66%
    15:00 +14°C° 0 mm 7 mps 753 mmHg 65%
    16:00 +12°C° 0.3 mm 7 mps 753 mmHg 71%
    17:00 +12°C° 0.3 mm 8 mps 752 mmHg 76%
    18:00 +11°C° 0.3 mm 8 mps 752 mmHg 82%
    19:00 +11°C° 1.3 mm 9 mps 752 mmHg 83%
    20:00 +11°C° 1.3 mm 10 mps 751 mmHg 85%
    21:00 +11°C° 1.3 mm 11 mps 751 mmHg 86%
    22:00 +11°C° 1.6 mm 11 mps 751 mmHg 83%
    23:00 +11°C° 1.6 mm 11 mps 752 mmHg 81%

    Day after tomorrow, 1 June, Monday

    Time Temperature Precipitation Wind Pressure Humidity
    00:00 +11°C° 1.6 mm 11 mps 752 mmHg 78%
    01:00 +9°C° 0.1 mm 10 mps 753 mmHg 76%
    02:00 +9°C° 0.1 mm 10 mps 754 mmHg 74%
    03:00 +8°C° 0.1 mm 10 mps 754 mmHg 72%
    04:00 +8°C° 0.1 mm 9 mps 755 mmHg 73%
    05:00 +8°C° 0.1 mm 9 mps 756 mmHg 73%
    06:00 +9°C° 0.1 mm 8 mps 757 mmHg 73%
    07:00 +9°C° 0.1 mm 8 mps 758 mmHg 72%
    08:00 +9°C° 0.1 mm 8 mps 758 mmHg 70%
    09:00 +10°C° 0.1 mm 8 mps 759 mmHg 68%
    10:00 +10°C° 0.1 mm 8 mps 759 mmHg 67%
    11:00 +11°C° 0.1 mm 8 mps 760 mmHg 66%
    12:00 +11°C° 0.1 mm 8 mps 760 mmHg 64%
    13:00 +11°C° 0.1 mm 7 mps 760 mmHg 65%
    14:00 +11°C° 0.1 mm 7 mps 761 mmHg 66%
    15:00 +11°C° 0.1 mm 6 mps 761 mmHg 67%
    16:00 +10°C° 0 mm 6 mps 761 mmHg 69%
    17:00 +10°C° 0 mm 5 mps 762 mmHg 71%
    18:00 +10°C° 0 mm 4 mps 763 mmHg 73%
    19:00 +10°C° 0 mm 4 mps 763 mmHg 74%
    20:00 +10°C° 0 mm 4 mps 763 mmHg 75%
    21:00 +10°C° 0 mm 4 mps 764 mmHg 76%
    22:00 +10°C° 0.1 mm 3 mps 764 mmHg 78%
    23:00 +10°C° 0.1 mm 3 mps 764 mmHg 79%

    2 June, Tuesday

    Time Temperature Precipitation Wind Pressure Humidity
    00:00 +10°C° 0.1 mm 3 mps 764 mmHg 80%
    01:00 +10°C° 0 mm 3 mps 764 mmHg 80%
    02:00 +10°C° 0 mm 3 mps 764 mmHg 80%
    03:00 +10°C° 0 mm 3 mps 764 mmHg 80%
    04:00 +10°C° 0 mm 3 mps 765 mmHg 80%
    05:00 +10°C° 0 mm 2 mps 765 mmHg 81%
    06:00 +10°C° 0 mm 2 mps 765 mmHg 81%
    07:00 +11°C° 0.1 mm 3 mps 766 mmHg 80%
    08:00 +12°C° 0.1 mm 3 mps 766 mmHg 78%
    09:00 +13°C° 0.1 mm 3 mps 767 mmHg 77%
    10:00 +13°C° 0.1 mm 3 mps 767 mmHg 75%
    11:00 +14°C° 0.1 mm 3 mps 767 mmHg 73%
    12:00 +14°C° 0.1 mm 3 mps 767 mmHg 71%
    13:00 +14°C° 0.1 mm 3 mps 766 mmHg 73%
    14:00 +14°C° 0.1 mm 3 mps 766 mmHg 74%
    15:00 +14°C° 0.1 mm 3 mps 766 mmHg 76%
    16:00 +14°C° 0 mm 2 mps 766 mmHg 79%
    17:00 +13°C° 0 mm 2 mps 767 mmHg 82%
    18:00 +13°C° 0 mm 2 mps 767 mmHg 85%
    19:00 +13°C° 0 mm 2 mps 767 mmHg 86%
    20:00 +12°C° 0 mm 2 mps 768 mmHg 87%
    21:00 +12°C° 0 mm 1 mps 768 mmHg 87%
    22:00 +12°C° 0 mm 1 mps 768 mmHg 88%
    23:00 +12°C° 0 mm 1 mps 768 mmHg 88%

    3 June, Wednesday

    Time Temperature Precipitation Wind Pressure Humidity
    00:00 +11°C° 0 mm 1 mps 768 mmHg 88%
    01:00 +11°C° 0 mm 1 mps 768 mmHg 89%
    02:00 +11°C° 0 mm 1 mps 768 mmHg 90%
    03:00 +11°C° 0 mm 1 mps 769 mmHg 90%
    04:00 +11°C° 0 mm 1 mps 769 mmHg 90%
    05:00 +11°C° 0 mm 1 mps 769 mmHg 90%
    06:00 +10°C° 0 mm 1 mps 769 mmHg 90%
    07:00 +11°C° 0 mm 1 mps 770 mmHg 88%
    08:00 +12°C° 0 mm 1 mps 770 mmHg 85%
    09:00 +13°C° 0 mm 1 mps 770 mmHg 83%
    10:00 +14°C° 0 mm 1 mps 770 mmHg 80%
    11:00 +15°C° 0 mm 1 mps 770 mmHg 77%
    12:00 +15°C° 0 mm 1 mps 770 mmHg 74%
    13:00 +15°C° 0 mm 1 mps 769 mmHg 76%
    14:00 +15°C° 0 mm 1 mps 769 mmHg 78%
    15:00 +15°C° 0 mm 1 mps 769 mmHg 80%
    16:00 +15°C° 0 mm 1 mps 769 mmHg 81%
    17:00 +14°C° 0 mm 1 mps 769 mmHg 83%
    18:00 +14°C° 0 mm 1 mps 770 mmHg 85%
    19:00 +14°C° 0 mm 1 mps 770 mmHg 85%
    20:00 +14°C° 0 mm 1 mps 770 mmHg 85%
    21:00 +13°C° 0 mm 1 mps 770 mmHg 85%
    22:00 +13°C° 0 mm 1 mps 770 mmHg 85%
    23:00 +13°C° 0 mm 1 mps 770 mmHg 85%

    4 June, Thursday

    Time Temperature Precipitation Wind Pressure Humidity
    00:00 +12°C° 0 mm 1 mps 770 mmHg 85%
    01:00 +12°C° 0 mm 1 mps 769 mmHg 85%
    02:00 +12°C° 0 mm 1 mps 769 mmHg 84%
    03:00 +12°C° 0 mm 1 mps 769 mmHg 83%
    04:00 +12°C° 0 mm 1 mps 769 mmHg 83%
    05:00 +11°C° 0 mm 1 mps 770 mmHg 83%
    06:00 +11°C° 0 mm 1 mps 770 mmHg 82%
    07:00 +12°C° 0 mm 1 mps 770 mmHg 79%
    08:00 +13°C° 0 mm 1 mps 770 mmHg 77%
    09:00 +14°C° 0 mm 1 mps 770 mmHg 74%
    10:00 +15°C° 0 mm 1 mps 770 mmHg 70%
    11:00 +15°C° 0 mm 1 mps 770 mmHg 66%
    12:00 +16°C° 0 mm 1 mps 769 mmHg 62%
    13:00 +16°C° 0 mm 1 mps 769 mmHg 63%
    14:00 +15°C° 0 mm 1 mps 769 mmHg 65%
    15:00 +15°C° 0 mm 1 mps 768 mmHg 67%
    16:00 +15°C° 0 mm 1 mps 768 mmHg 69%
    17:00 +14°C° 0 mm 1 mps 769 mmHg 71%
    18:00 +14°C° 0 mm 1 mps 769 mmHg 72%
    19:00 +13°C° 0 mm 1 mps 769 mmHg 73%
    20:00 +13°C° 0 mm 1 mps 769 mmHg 74%
    21:00 +13°C° 0 mm 1 mps 769 mmHg 75%
    22:00 +12°C° 0 mm 2 mps 769 mmHg 75%
    23:00 +12°C° 0 mm 2 mps 769 mmHg 75%
    Show more